Billings, MT

6:24 AM MDT on October 21, 2014 (GMT -0600)
Billings Logan International | Change Station
CLOSE
Current Station
Airport
Location: Billings,
Elevation: 3570 ft
Nearby Weather Stations

Elev 3570 ft 45.81 °N, 108.54 °W | Updated 31 minutes ago

Clear
Clear
50 °F
Feels Like 50 °F
N
15
Wind Variable Wind from SW

Today
High -- | Low -- °F
--% Chance of Precip.
Yesterday
High -- | Low -- °F
Precip. -- in
7:38 AM 6:17 PM
Waning Crescent, 6% visible
Pressure 29.69 in
Visibility 10.0 miles
Clouds Clear
Dew Point 29 °F
Humidity 44%
Rainfall 0.00 in
Snow Depth Not available.
UV 0 out of 12
Pollen 2.80 out of 12
Air Quality Not available.
Flu Activity No Activity
METAR KBIL 211153Z 23013KT 10SM CLR 10/M02 A2975 RMK AO2 SLP052 T01001017 10156 20078 55007

More Conditions Fewer Conditions

Pressure 29.69 in
Visibility 10.0 miles
Clouds Clear
Dew Point 29 °F
Humidity 44%
Rainfall 0.00 in
Snow Depth Not available.
UV 0 out of 12
Pollen 2.80 out of 12
Air Quality Not available.
Flu Activity No Activity
METAR KBIL 211153Z 23013KT 10SM CLR 10/M02 A2975 RMK AO2 SLP052 T01001017 10156 20078 55007

More Conditions Fewer Conditions

10-Day Weather Forecast

Almanac

Astronomy

Oct. 21, 2014 Rise Set
Actual Time 7:38 AM MDT 6:17 PM MDT
Civil Twilight 7:08 AM MDT 6:47 PM MDT
Nautical Twilight 6:33 AM MDT 7:22 PM MDT
Astronomical Twilight 5:59 AM MDT 7:56 PM MDT
Moon 5:19 AM MDT 5:18 PM MDT
Length of Visible Light 11h 39m
Length of Day
10h 38m
Tomorrow will be 3m 4s shorter.
Waning Crescent, 6% of the Moon is Illuminated
Today
Waning Crescent
Oct 23
New
Oct 30
First Quarter
Nov 6
Full
Nov 14
Last Quarter

Today's Extremes

State Highs State Lows

Community

WunderPhotos

Upload Photos

1,763,647 photos uploaded!

Nearby

Snow Depth

Station Depth Elevation
Burnt Mountain 0 in 5880 ft
Crystal Lake 1 in 6050 ft
Fisher Creek 2 in 9100 ft
Northeast Entrance 0 in 7350 ft
Monument Peak 0 in 8850 ft

Earthquake Activity

City Distance Mag. Time & Date
No recent earthquake activity has been reported nearby.
Minimum magnitude displayed is 2.5.

Coastal Water Temperatures

Place Temperature
No Stations Reporting

Nearby Weather Stations